Погода в Кярдле

Эстония     58°59′43″N   22°44′43″E
темп.,
°C
ветер,
м/с
пор.,
м/с
влажн.,
%
обл.,
%
осадки,
мм/ч
давл.,
гПа
погр.,
м
24 сентября, пт
пт2400:00+11ю5696100 10.8 984587
03:00+10зсз269467 12.4 984393
06:00+10сз369399 0.1 985404
09:00+10всв4495100 0.3 988401
12:00+9в4592100 0.0 992538
15:00+9всв4589100 0.1 995565
18:00+9юв1185100 0.0 997352
21:00+9зюз2389100 0.0 998214
25 сентября, сб
сб2500:00+9зюз3690100 0.0 999331
03:00+9юз4893100 0.2 997417
06:00+9ю41092100 0.5 996503
09:00+11сз479464 0.6 997505
12:00+11ссз4685100 0.1 1000718
15:00+12ссз68761 0.1 1004763
18:00+11сз610800 0.0 1008775
21:00+11сз712755 0.0 1011741
26 сентября, вс
вс2600:00+10сз711765 0.0 1013946
03:00+10сз7127868 0.0 1016814
06:00+10сз611795 0.0 1018612
09:00+10сз6107714 0.0 1020554
12:00+11ссз56705 0.0 1023511
15:00+12ссз45655 0.0 1024503
18:00+11ссз35705 0.0 1024334
21:00+9ссз23785 0.0 102563
27 сентября, пн
пн2700:00+9ссв117816 0.0 102611
03:00+9юв118119 0.0 102712
06:00+8юв238578 0.0 102861
09:00+9юв248195 0.0 1028145
12:00+12юв456499 0.0 1029412
15:00+13юв3560100 0.0 1029422
18:00+12вюв2469100 0.0 1029154
21:00+9вюв227816 0.0 102932
28 сентября, вт
вт2800:00+9юв38865 0.0 1029165
03:00+8юв489166 0.0 1030190
06:00+9юв489486 0.0 1030222
09:00+10юв5989100 0.0 1030394
12:00+12ююв6974100 0.0 1031574
15:00+13ююв586873 0.0 1031572
18:00+12ююв487561 0.0 1031396
21:00+9юв3886100 0.0 1031171